This is the latest recevied weather packets stored in our database for station/object AJ7DN. If no packets are shown the sender has not sent any weather packets the latest 10 day(s).
| Time | Temp. | Humidity | Pressure | Rain* | Wind** | Luminosity | Snow |
|---|---|---|---|---|---|---|---|
| 1777402858 | 13.89° C | 63% | 1028.7 hPa | 0 mm | - | 311 W/m² | - |
| 1777402555 | 13.89° C | 62% | 1028.7 hPa | 0 mm | - | 321 W/m² | - |
| 1777402252 | 13.89° C | 63% | 1028.5 hPa | 0 mm | - | 242 W/m² | - |
| 1777401947 | 13.89° C | 64% | 1028.7 hPa | 0 mm | - | 196 W/m² | - |
| 1777401646 | 13.33° C | 66% | 1028.7 hPa | 0 mm | - | 171 W/m² | - |
| 1777401343 | 13.33° C | 66% | 1028.6 hPa | 0 mm | - | 189 W/m² | - |
| 1777401039 | 12.78° C | 66% | 1028.7 hPa | 0 mm | - | 151 W/m² | - |
| 1777400734 | 13.33° C | 67% | 1028.8 hPa | 0 mm | - | 150 W/m² | - |
| 1777400432 | 13.33° C | 70% | 1028.7 hPa | 0 mm | - | 180 W/m² | - |
| 1777400132 | 12.78° C | 69% | 1028.6 hPa | 0 mm | - | 128 W/m² | - |
| 1777399829 | 12.78° C | 71% | 1028.5 hPa | 0 mm | - | 69 W/m² | - |
| 1777399526 | 12.78° C | 69% | 1028.4 hPa | 0 mm | - | 39 W/m² | - |
| 1777399224 | 13.33° C | 68% | 1028.5 hPa | 0 mm | - | 53 W/m² | - |
| 1777398921 | 13.33° C | 67% | 1028.4 hPa | 0 mm | - | 87 W/m² | - |
| 1777398618 | 13.89° C | 65% | 1028.3 hPa | 0 mm | - | 148 W/m² | - |
| 1777398314 | 14.44° C | 66% | 1028.4 hPa | 0 mm | - | 250 W/m² | - |
| 1777398012 | 13.89° C | 66% | 1028.2 hPa | 0 mm | - | 447 W/m² | - |
| 1777397708 | 13.33° C | 67% | 1028.1 hPa | 0 mm | - | 284 W/m² | - |
| 1777397404 | 13.89° C | 66% | 1028.3 hPa | 0 mm | - | 232 W/m² | - |
| 1777397100 | 13.33° C | 70% | 1028.3 hPa | 0 mm | - | 379 W/m² | - |
| 1777396796 | 13.89° C | 67% | 1028.5 hPa | 0 mm | - | 448 W/m² | - |
| 1777396494 | 12.78° C | 69% | 1028.4 hPa | 0 mm | - | 241 W/m² | - |
| 1777396190 | 12.78° C | 68% | 1028.2 hPa | 0 mm | - | 229 W/m² | - |
| 1777395886 | 12.78° C | 71% | 1028.4 hPa | 0 mm | - | 248 W/m² | - |
| 1777395582 | 12.22° C | 75% | 1028.3 hPa | 0 mm | - | 219 W/m² | - |
* Rain latest hour (hover to see other rain measurements)
** Current wind speed in m/s (hover to see current wind gust speed)